Location: C�mpuri de-Sus
(45.9500°N, 22.5500°E)
Time: 13:30:57
(UTC+00:00)

BREEZE-M R/B - Pass Details

Date: 24 October 2021
Orbit: 597 x 26569 km, 48.9° (Epoch: 06 December)

Event Time Altitude Azimuth Distance (km) Brightness Sun altitude
Rises 17:53:45 0° 290° (WNW) 2,875 7.3 -25.9°
Reaches altitude 10° 17:55:35 10° 287° (WNW) 1,943 6.1 -26.2°
Maximum altitude 17:59:04 67° 204° (SSW) 814 3.0 -26.8°
Enters shadow 17:59:09 67° 195° (SSW) 822 3.0 -26.8°
